| time (UTC) | temp C | wind direction | speed KPH | gust KPH | rain 1hr cm | rain 24hr cm | rain mn cm | humidity % | barometer mb |
| 20260505064051 | 11 | 15 | 0.0 | 0.0 | 0.00 | 0.00 | 0.00 | 94 | 1010.4 |
| 20260505063547 | 11 | 15 | 0.0 | 0.0 | 0.00 | 0.00 | 0.00 | 94 | 1010.6 |
| 20260505063043 | 11 | 15 | 0.0 | 0.0 | 0.00 | 0.00 | 0.00 | 93 | 1010.7 |
| 20260505062540 | 11 | 15 | 0.0 | 0.0 | 0.00 | 0.00 | 0.00 | 92 | 1010.7 |
| 20260505062037 | 12 | 15 | 0.0 | 0.0 | 0.00 | 0.00 | 0.00 | 92 | 1010.5 |
| 20260505061535 | 12 | 15 | 0.0 | 0.0 | 0.00 | 0.00 | 0.00 | 92 | 1010.3 |
| 20260505061032 | 12 | 15 | 0.0 | 0.0 | 0.00 | 0.00 | 0.00 | 91 | 1010.3 |
| 20260505060530 | 12 | 15 | 0.0 | 0.0 | 0.00 | 0.00 | 0.00 | 91 | 1010.5 |
| 20260505060026 | 12 | 15 | 0.0 | 0.0 | 0.00 | 0.00 | 0.00 | 91 | 1010.5 |
| 20260505055521 | 12 | 15 | 0.0 | 0.0 | 0.00 | 0.00 | 0.00 | 90 | 1010.4 |
| 20260505055018 | 12 | 15 | 0.0 | 0.0 | 0.00 | 0.00 | 0.00 | 90 | 1010.4 |
| 20260505054516 | 12 | 15 | 0.0 | 0.0 | 0.00 | 0.00 | 0.00 | 90 | 1010.2 |
| 20260505054014 | 12 | 15 | 0.0 | 0.0 | 0.00 | 0.00 | 0.00 | 89 | 1010.2 |
| 20260505053511 | 12 | 15 | 0.0 | 0.0 | 0.00 | 0.00 | 0.00 | 89 | 1010.2 |
| 20260505053008 | 13 | 15 | 0.0 | 0.0 | 0.00 | 0.00 | 0.00 | 88 | 1010.2 |
| 20260505052505 | 13 | 31 | 0.0 | 0.0 | 0.00 | 0.00 | 0.00 | 88 | 1010.2 |
| 20260505052002 | 13 | 31 | 0.0 | 0.0 | 0.00 | 0.00 | 0.00 | 88 | 1010.2 |
| 20260505051458 | 13 | 22 | 0.0 | 0.0 | 0.00 | 0.00 | 0.00 | 87 | 1010.2 |
| 20260505050957 | 13 | 352 | 0.0 | 0.0 | 0.00 | 0.00 | 0.00 | 87 | 1010.0 |
| 20260505050454 | 13 | 4 | 0.0 | 0.0 | 0.00 | 0.00 | 0.00 | 87 | 1010.3 |
| 20260505041422 | 14 | 31 | 0.0 | 0.0 | 0.00 | 0.00 | 0.00 | 84 | 1009.7 |
| 20260505040919 | 14 | 30 | 0.0 | 0.0 | 0.00 | 0.00 | 0.00 | 83 | 1009.7 |
| 20260505040417 | 14 | 30 | 0.0 | 0.0 | 0.00 | 0.00 | 0.00 | 82 | 1009.6 |
| 20260505035913 | 14 | 53 | 0.0 | 0.0 | 0.00 | 0.00 | 0.00 | 82 | 1009.6 |
| 20260505035409 | 14 | 54 | 0.0 | 0.0 | 0.00 | 0.00 | 0.00 | 82 | 1009.5 |
| 20260505034907 | 15 | 55 | 1.6 | 1.6 | 0.00 | 0.00 | 0.00 | 81 | 1009.4 |
| 20260505034403 | 15 | 30 | 0.0 | 0.0 | 0.00 | 0.00 | 0.00 | 80 | 1009.4 |
| 20260505033900 | 15 | 30 | 0.0 | 0.0 | 0.00 | 0.00 | 0.00 | 80 | 1009.5 |
| 20260505033357 | 15 | 31 | 0.0 | 0.0 | 0.00 | 0.00 | 0.00 | 79 | 1009.3 |
| 20260505032855 | 15 | 29 | 0.0 | 0.0 | 0.00 | 0.00 | 0.00 | 78 | 1009.3 |
| 20260505032352 | 16 | 42 | 0.0 | 0.0 | 0.00 | 0.00 | 0.00 | 77 | 1009.2 |
| 20260505031848 | 16 | 43 | 0.0 | 0.0 | 0.00 | 0.00 | 0.00 | 77 | 1009.4 |
| 20260505031345 | 16 | 39 | 0.0 | 1.6 | 0.00 | 0.00 | 0.00 | 75 | 1009.2 |
| 20260505030843 | 17 | 48 | 1.6 | 1.6 | 0.00 | 0.00 | 0.00 | 73 | 1009.4 |
| 20260505030338 | 17 | 70 | 1.6 | 1.6 | 0.00 | 0.00 | 0.00 | 73 | 1009.4 |
| 20260505025834 | 17 | 73 | 1.6 | 1.6 | 0.00 | 0.00 | 0.00 | 73 | 1009.2 |
| 20260505025332 | 17 | 38 | 0.0 | 1.6 | 0.00 | 0.00 | 0.00 | 72 | 1008.9 |
| 20260505024830 | 17 | 41 | 0.0 | 1.6 | 0.00 | 0.00 | 0.00 | 71 | 1008.7 |
| 20260505024327 | 17 | 20 | 0.0 | 0.0 | 0.00 | 0.00 | 0.00 | 71 | 1008.9 |
| 20260505023824 | 18 | 21 | 0.0 | 0.0 | 0.00 | 0.00 | 0.00 | 67 | 1008.8 |
| 20260505023321 | 17 | 51 | 1.6 | 1.6 | 0.00 | 0.00 | 0.00 | 71 | 1008.8 |
| 20260505022819 | 18 | 15 | 0.0 | 0.0 | 0.00 | 0.00 | 0.00 | 69 | 1008.9 |
| 20260505022315 | 18 | 355 | 0.0 | 1.6 | 0.00 | 0.00 | 0.00 | 70 | 1008.9 |
| 20260505021813 | 18 | 39 | 0.0 | 1.6 | 0.00 | 0.00 | 0.00 | 69 | 1008.7 |
| 20260505021309 | 18 | 354 | 1.6 | 3.2 | 0.00 | 0.00 | 0.00 | 67 | 1008.9 |
| 20260505020805 | 18 | 40 | 0.0 | 1.6 | 0.00 | 0.00 | 0.00 | 67 | 1008.8 |
| 20260505020301 | 19 | 30 | 1.6 | 1.6 | 0.00 | 0.00 | 0.00 | 66 | 1008.7 |
| 20260505015758 | 19 | 45 | 1.6 | 1.6 | 0.00 | 0.00 | 0.00 | 65 | 1008.9 |
| 20260505015255 | 20 | 37 | 1.6 | 1.6 | 0.00 | 0.00 | 0.00 | 63 | 1008.6 |
| 20260505014752 | 20 | 47 | 0.0 | 0.0 | 0.00 | 0.00 | 0.00 | 63 | 1008.6 |
| 20260505014249 | 20 | 36 | 1.6 | 1.6 | 0.00 | 0.00 | 0.00 | 62 | 1008.6 |
| 20260505013746 | 20 | 36 | 0.0 | 0.0 | 0.00 | 0.00 | 0.00 | 60 | 1008.6 |
| 20260505013243 | 20 | 327 | 1.6 | 3.2 | 0.00 | 0.00 | 0.00 | 58 | 1008.8 |
| 20260505012741 | 21 | 275 | 3.2 | 3.2 | 0.00 | 0.00 | 0.00 | 58 | 1008.5 |
| 20260505012238 | 21 | 319 | 1.6 | 3.2 | 0.00 | 0.00 | 0.00 | 59 | 1008.9 |
| 20260505011733 | 21 | 309 | 1.6 | 1.6 | 0.00 | 0.00 | 0.00 | 59 | 1008.8 |
| 20260505011231 | 21 | 34 | 0.0 | 0.0 | 0.00 | 0.00 | 0.00 | 59 | 1008.8 |
| 20260505010726 | 21 | 13 | 1.6 | 1.6 | 0.00 | 0.00 | 0.00 | 58 | 1008.8 |
| 20260505010223 | 21 | 13 | 1.6 | 1.6 | 0.00 | 0.00 | 0.00 | 58 | 1008.8 |
| 20260505005720 | 22 | 31 | 0.0 | 1.6 | 0.00 | 0.00 | 0.00 | 58 | 1008.6 |
| 20260505005217 | 22 | 342 | 1.6 | 3.2 | 0.00 | 0.00 | 0.00 | 57 | 1008.8 |
| 20260505004714 | 22 | 25 | 1.6 | 1.6 | 0.00 | 0.00 | 0.00 | 58 | 1008.7 |
| 20260505004210 | 22 | 44 | 0.0 | 0.0 | 0.00 | 0.00 | 0.00 | 56 | 1008.8 |
| 20260505003708 | 22 | 30 | 0.0 | 1.6 | 0.00 | 0.00 | 0.00 | 55 | 1008.6 |
| 20260505003205 | 23 | 43 | 0.0 | 1.6 | 0.00 | 0.00 | 0.00 | 54 | 1008.7 |
| 20260505002701 | 23 | 20 | 0.0 | 0.0 | 0.00 | 0.00 | 0.00 | 54 | 1008.7 |
| 20260505002159 | 24 | 52 | 0.0 | 1.6 | 0.00 | 0.00 | 0.00 | 53 | 1008.5 |
| 20260505001656 | 24 | 61 | 0.0 | 1.6 | 0.00 | 0.00 | 0.00 | 53 | 1008.5 |
| 20260505001154 | 25 | 70 | 3.2 | 3.2 | 0.00 | 0.00 | 0.00 | 52 | 1008.5 |
| 20260505000650 | 25 | 45 | 0.0 | 1.6 | 0.00 | 0.00 | 0.00 | 52 | 1008.6 |
| 20260505000148 | 25 | 79 | 1.6 | 1.6 | 0.00 | 0.00 | 0.00 | 52 | 1008.6 |
| 20260504235644 | 25 | 18 | 1.6 | 1.6 | 0.00 | 0.00 | 0.00 | 51 | 1008.5 |
| 20260504235141 | 25 | 0 | 1.6 | 1.6 | 0.00 | 0.00 | 0.00 | 52 | 1008.5 |
| 20260504234639 | 25 | 82 | 1.6 | 3.2 | 0.00 | 0.00 | 0.00 | 50 | 1008.5 |
| 20260504234136 | 25 | 346 | 1.6 | 3.2 | 0.00 | 0.00 | 0.00 | 49 | 1008.5 |
| 20260504233631 | 25 | 349 | 3.2 | 3.2 | 0.00 | 0.00 | 0.00 | 50 | 1008.5 |
| 20260504233127 | 26 | 61 | 0.0 | 1.6 | 0.00 | 0.00 | 0.00 | 50 | 1008.2 |
| 20260504232625 | 25 | 54 | 3.2 | 3.2 | 0.00 | 0.00 | 0.00 | 50 | 1008.5 |
| 20260504232122 | 26 | 334 | 0.0 | 1.6 | 0.00 | 0.00 | 0.00 | 51 | 1008.4 |
| 20260504231619 | 26 | 30 | 1.6 | 1.6 | 0.00 | 0.00 | 0.00 | 49 | 1008.4 |
| 20260504231115 | 25 | 78 | 3.2 | 3.2 | 0.00 | 0.00 | 0.00 | 49 | 1008.8 |
| 20260504230611 | 26 | 54 | 3.2 | 3.2 | 0.00 | 0.00 | 0.00 | 48 | 1008.6 |
| 20260504230110 | 27 | 77 | 3.2 | 4.8 | 0.00 | 0.00 | 0.00 | 47 | 1008.6 |
| 20260504225608 | 26 | 26 | 1.6 | 1.6 | 0.00 | 0.00 | 0.00 | 48 | 1008.5 |
| 20260504225104 | 26 | 76 | 0.0 | 1.6 | 0.00 | 0.00 | 0.00 | 47 | 1008.5 |
| 20260504224600 | 27 | 12 | 0.0 | 0.0 | 0.00 | 0.00 | 0.00 | 46 | 1008.8 |
| 20260504224058 | 27 | 53 | 1.6 | 3.2 | 0.00 | 0.00 | 0.00 | 46 | 1008.7 |
| 20260504223555 | 26 | 43 | 1.6 | 1.6 | 0.00 | 0.00 | 0.00 | 46 | 1008.8 |
| 20260504223050 | 27 | 80 | 1.6 | 1.6 | 0.00 | 0.00 | 0.00 | 47 | 1008.7 |
| 20260504222547 | 27 | 61 | 0.0 | 1.6 | 0.00 | 0.00 | 0.00 | 46 | 1008.6 |
| 20260504222045 | 26 | 44 | 0.0 | 1.6 | 0.00 | 0.00 | 0.00 | 48 | 1008.9 |
| 20260504221542 | 26 | 314 | 1.6 | 3.2 | 0.00 | 0.00 | 0.00 | 46 | 1008.6 |
| 20260504221039 | 26 | 24 | 0.0 | 0.0 | 0.00 | 0.00 | 0.00 | 47 | 1008.9 |
| 20260504220535 | 26 | 50 | 1.6 | 1.6 | 0.00 | 0.00 | 0.00 | 48 | 1008.7 |
| 20260504220032 | 27 | 73 | 3.2 | 3.2 | 0.00 | 0.00 | 0.00 | 47 | 1008.8 |
| 20260504215528 | 27 | 60 | 1.6 | 1.6 | 0.00 | 0.00 | 0.00 | 47 | 1008.8 |
| 20260504215026 | 28 | 49 | 0.0 | 1.6 | 0.00 | 0.00 | 0.00 | 46 | 1008.8 |
| 20260504214522 | 27 | 37 | 0.0 | 0.0 | 0.00 | 0.00 | 0.00 | 47 | 1009.0 |
| 20260504214018 | 27 | 47 | 1.6 | 3.2 | 0.00 | 0.00 | 0.00 | 46 | 1008.9 |
| 20260504213515 | 27 | 15 | 0.0 | 0.0 | 0.00 | 0.00 | 0.00 | 49 | 1009.2 |
| 20260504213012 | 28 | 324 | 0.0 | 0.0 | 0.00 | 0.00 | 0.00 | 47 | 1009.2 |
| 20260504212508 | 27 | 328 | 1.6 | 1.6 | 0.00 | 0.00 | 0.00 | 48 | 1009.0 |
| 20260504212006 | 27 | 43 | 3.2 | 3.2 | 0.00 | 0.00 | 0.00 | 47 | 1009.2 |
| 20260504211502 | 27 | 325 | 1.6 | 1.6 | 0.00 | 0.00 | 0.00 | 51 | 1009.2 |
| 20260504210959 | 27 | 345 | 1.6 | 1.6 | 0.00 | 0.00 | 0.00 | 48 | 1009.4 |
| 20260504210456 | 27 | 20 | 1.6 | 3.2 | 0.00 | 0.00 | 0.00 | 50 | 1009.4 |
| 20260504205953 | 27 | 357 | 0.0 | 1.6 | 0.00 | 0.00 | 0.00 | 50 | 1009.0 |
| 20260504205450 | 28 | 353 | 0.0 | 1.6 | 0.00 | 0.00 | 0.00 | 48 | 1009.3 |
| 20260504204949 | 26 | 20 | 1.6 | 3.2 | 0.00 | 0.00 | 0.00 | 52 | 1009.2 |
| 20260504204447 | 25 | 320 | 3.2 | 3.2 | 0.00 | 0.00 | 0.00 | 55 | 1009.3 |
| 20260504203945 | 27 | 319 | 4.8 | 4.8 | 0.00 | 0.00 | 0.00 | 51 | 1009.5 |
| 20260504203443 | 27 | 350 | 1.6 | 1.6 | 0.00 | 0.00 | 0.00 | 50 | 1009.4 |
| 20260504202938 | 27 | 323 | 1.6 | 3.2 | 0.00 | 0.00 | 0.00 | 49 | 1009.5 |
| 20260504202435 | 27 | 19 | 0.0 | 0.0 | 0.00 | 0.00 | 0.00 | 52 | 1009.5 |
| 20260504201932 | 27 | 55 | 3.2 | 3.2 | 0.00 | 0.00 | 0.00 | 52 | 1009.4 |
| 20260504201430 | 25 | 21 | 0.0 | 0.0 | 0.00 | 0.00 | 0.00 | 54 | 1009.4 |
| 20260504200927 | 26 | 343 | 0.0 | 0.0 | 0.00 | 0.00 | 0.00 | 55 | 1009.7 |
| 20260504200424 | 26 | 18 | 0.0 | 1.6 | 0.00 | 0.00 | 0.00 | 52 | 1009.7 |
| 20260504195920 | 26 | 19 | 0.0 | 1.6 | 0.00 | 0.00 | 0.00 | 53 | 1009.7 |
| 20260504195416 | 25 | 337 | 1.6 | 1.6 | 0.00 | 0.00 | 0.00 | 55 | 1009.6 |
| 20260504194913 | 27 | 323 | 1.6 | 3.2 | 0.00 | 0.00 | 0.00 | 51 | 1009.7 |
| 20260504194409 | 26 | 358 | 1.6 | 1.6 | 0.00 | 0.00 | 0.00 | 53 | 1009.5 |
| 20260504193905 | 24 | 337 | 0.0 | 0.0 | 0.00 | 0.00 | 0.00 | 57 | 1009.6 |
| 20260504193402 | 25 | 5 | 0.0 | 1.6 | 0.00 | 0.00 | 0.00 | 54 | 1009.4 |
| 20260504192901 | 25 | 15 | 0.0 | 0.0 | 0.00 | 0.00 | 0.00 | 54 | 1009.7 |
| 20260504192358 | 26 | 20 | 0.0 | 0.0 | 0.00 | 0.00 | 0.00 | 52 | 1009.6 |
| 20260504191856 | 24 | 11 | 0.0 | 1.6 | 0.00 | 0.00 | 0.00 | 55 | 1009.7 |
| 20260504191354 | 23 | 303 | 1.6 | 3.2 | 0.00 | 0.00 | 0.00 | 56 | 1009.9 |
| 20260504190849 | 24 | 357 | 0.0 | 0.0 | 0.00 | 0.00 | 0.00 | 55 | 1009.9 |
| 20260504190345 | 25 | 327 | 1.6 | 1.6 | 0.00 | 0.00 | 0.00 | 55 | 1010.0 |
| 20260504185842 | 23 | 78 | 3.2 | 3.2 | 0.00 | 0.00 | 0.00 | 59 | 1010.1 |
| 20260504185339 | 24 | 20 | 0.0 | 1.6 | 0.00 | 0.00 | 0.00 | 56 | 1010.0 |
| 20260504184835 | 25 | 355 | 1.6 | 1.6 | 0.00 | 0.00 | 0.00 | 56 | 1010.1 |
| 20260504184331 | 24 | 9 | 1.6 | 1.6 | 0.00 | 0.00 | 0.00 | 56 | 1010.1 |
| 20260504183827 | 25 | 326 | 3.2 | 4.8 | 0.00 | 0.00 | 0.00 | 56 | 1010.0 |
| 20260504183325 | 24 | 347 | 0.0 | 0.0 | 0.00 | 0.00 | 0.00 | 57 | 1010.1 |
| 20260504182822 | 23 | 320 | 1.6 | 1.6 | 0.00 | 0.00 | 0.00 | 58 | 1010.3 |
| 20260504182320 | 23 | 34 | 0.0 | 1.6 | 0.00 | 0.00 | 0.00 | 57 | 1010.3 |
| 20260504181816 | 25 | 351 | 0.0 | 0.0 | 0.00 | 0.00 | 0.00 | 56 | 1010.1 |
| 20260504181314 | 23 | 22 | 0.0 | 1.6 | 0.00 | 0.00 | 0.00 | 60 | 1010.2 |
| 20260504180813 | 23 | 9 | 0.0 | 0.0 | 0.00 | 0.00 | 0.00 | 57 | 1010.2 |
| 20260504180311 | 23 | 23 | 1.6 | 3.2 | 0.00 | 0.00 | 0.00 | 60 | 1010.4 |
| 20260504175808 | 25 | 17 | 1.6 | 1.6 | 0.00 | 0.00 | 0.00 | 56 | 1010.1 |
| 20260504175305 | 24 | 329 | 0.0 | 0.0 | 0.00 | 0.00 | 0.00 | 60 | 1010.2 |
| 20260504174803 | 23 | 14 | 0.0 | 0.0 | 0.00 | 0.00 | 0.00 | 59 | 1010.3 |
| 20260504174301 | 22 | 310 | 3.2 | 3.2 | 0.00 | 0.00 | 0.00 | 59 | 1010.4 |
| 20260504173757 | 21 | 358 | 1.6 | 1.6 | 0.00 | 0.00 | 0.00 | 60 | 1010.1 |
| 20260504173254 | 22 | 309 | 1.6 | 3.2 | 0.00 | 0.00 | 0.00 | 60 | 1010.4 |
| 20260504172750 | 21 | 3 | 0.0 | 1.6 | 0.00 | 0.00 | 0.00 | 62 | 1010.2 |
| 20260504172247 | 21 | 303 | 6.4 | 8.0 | 0.00 | 0.00 | 0.00 | 63 | 1010.3 |
| 20260504171743 | 21 | 332 | 1.6 | 1.6 | 0.00 | 0.00 | 0.00 | 62 | 1010.3 |
| 20260504171241 | 22 | 326 | 1.6 | 3.2 | 0.00 | 0.00 | 0.00 | 61 | 1010.1 |
| 20260504170738 | 21 | 22 | 0.0 | 1.6 | 0.00 | 0.00 | 0.00 | 63 | 1010.1 |
| 20260504170235 | 21 | 0 | 1.6 | 3.2 | 0.00 | 0.00 | 0.00 | 63 | 1010.2 |
| 20260504160153 | 18 | 18 | 0.0 | 0.0 | 0.00 | 0.00 | 0.00 | 70 | 1009.5 |
| 20260504151121 | 15 | 17 | 0.0 | 0.0 | 0.00 | 0.00 | 0.00 | 84 | 1009.3 |
| 20260504150618 | 14 | 17 | 0.0 | 0.0 | 0.00 | 0.00 | 0.00 | 84 | 1009.2 |
| 20260504150115 | 14 | 17 | 0.0 | 0.0 | 0.00 | 0.00 | 0.00 | 85 | 1009.0 |
| 20260504141044 | 11 | 17 | 0.0 | 0.0 | 0.00 | 0.00 | 0.00 | 91 | 1009.2 |
| 20260504140540 | 11 | 17 | 0.0 | 0.0 | 0.00 | 0.00 | 0.00 | 91 | 1008.8 |
| 20260504130505 | 10 | 17 | 0.0 | 0.0 | 0.00 | 0.00 | 0.00 | 92 | 1008.0 |
| 20260504110352 | 11 | 47 | 0.0 | 0.0 | 0.00 | 0.00 | 0.00 | 89 | 1007.8 |
| 20260504100309 | 12 | 47 | 0.0 | 0.0 | 0.00 | 0.00 | 0.00 | 87 | 1007.3 |
| 20260504081703 | 13 | 47 | 0.0 | 0.0 | 0.00 | 0.00 | 0.00 | 83 | 1007.6 |
| 20260504081159 | 13 | 47 | 0.0 | 0.0 | 0.00 | 0.00 | 0.00 | 83 | 1007.5 |
| 20260504080655 | 14 | 47 | 0.0 | 0.0 | 0.00 | 0.00 | 0.00 | 83 | 1007.5 |
| 20260504080152 | 14 | 47 | 0.0 | 0.0 | 0.00 | 0.00 | 0.00 | 83 | 1007.4 |
| 20260504070120 | 15 | 47 | 0.0 | 0.0 | 0.00 | 0.00 | 0.00 | 78 | 1007.5 |